{"data":{"norad_id":41866,"epoch":"2026-05-25T04:34:01.670304Z","epoch_age_seconds":55645,"freshness":"FRESH","line1":"1 41866U 16071A   26145.19029711 -.00000093  00000+0  00000+0 0  9999","line2":"2 41866   0.2842  85.6620 0000815 274.4488 206.5096  1.00272749 34873","mean_motion":1.00272749,"eccentricity":8.15e-5,"inclination_deg":0.2842,"raan_deg":85.662,"arg_perigee_deg":274.4488,"mean_anomaly_deg":206.5096,"bstar":0,"rev_number":3487,"period_min":1436.0830977118,"perigee_km":35782.888315531,"apogee_km":35789.761122792,"semimajor_km":42164.461719162,"source":"CELESTRAK","updated_at":"2026-05-25T13:38:14.009342Z"}}